Location: Paris
(48.6709°N, 2.3750°E)
Time: 09:41:38
(UTC+02:00)

LO-87 - Pass Details

Date: 03 July 2022
Orbit: 451 x 466 km, 97.4° (Epoch: 09 August)

Event Time Altitude Azimuth Distance (km) Brightness Sun altitude
Exits shadow 02:27:47 14° 261° (W) 1,392 ? -18.0°
Maximum altitude 02:28:12 14° 269° (W) 1,381 ? -18.0°
Drops below altitude 10° 02:30:08 10° 303° (WNW) 1,622 ? -17.9°
Sets 02:33:00 0° 330° (NNW) 2,510 ? -17.8°
